Weather History for Blythe, CA

Change the Weather History Date:

Thursday, April 24, 2014

  Actual Average Record
Temperature  
Mean Temperature 76 °F -  
Max Temperature 91 °F 86 °F 104 °F (1996)
Min Temperature 60 °F 57 °F 48 °F (1970)
Cooling Degree Days 10    
Growing Degree Days 26 (Base 50)    
Moisture  
Dew Point 18 °F    
Average Humidity 11    
Maximum Humidity 22    
Minimum Humidity 6    
Precipitation  
Precipitation 0.00 in - - ()
Sea Level Pressure  
Sea Level Pressure 29.84 in    
Wind  
Wind Speed 5 mph (WSW)    
Max Wind Speed 14 mph    
Max Gust Speed -    
Visibility 10 miles    
Events      
Averages and records for this station are not official NWS values.
T = Trace of Precipitation, MM = Missing Value Source: NWS Daily Summary

Daily Weather History Graph

Daily Weather History Graph

Search for Another Location

Airport:

Trip Planner

Search our weather history database for the weather conditions in past years. The results will help you decide how hot, cold, wet, or windy it might be!

Date:

Astronomy

Apr. 24, 2014 Rise Set
Actual Time 5:57 AM PDT 7:16 PM PDT
Civil Twilight 5:31 AM PDT 7:42 PM PDT
Nautical Twilight 5:00 AM PDT 8:14 PM PDT
Astronomical Twilight 4:28 AM PDT 8:46 PM PDT
Moon 2:56 AM PDT (4/24) 2:50 PM PDT (4/24)
Length of Visible Light 14h 11m
Length of Day
13h 19m
Waning Crescent, 23% of the Moon is Illuminated
Apr 24
Waning Crescent
Apr 28
New
May 6
First Quarter
May 14
Full
May 21
Last Quarter

Hourly Weather History & Observations

Time (PDT) Temp. Dew Point Humidity Pressure Visibility Wind Dir Wind Speed Gust Speed Precip Events Conditions
12:52 AM 68.0 °F 12.0 °F 11% 29.86 in 10.0 mi North 4.6 mph - N/A   Clear
1:52 AM 68.0 °F 12.0 °F 11% 29.85 in 10.0 mi WSW 3.5 mph - N/A   Clear
2:52 AM 62.1 °F 10.9 °F 13% 29.85 in 10.0 mi North 6.9 mph - N/A   Clear
3:52 AM 64.0 °F 12.9 °F 14% 29.84 in 10.0 mi WNW 3.5 mph - N/A   Clear
4:52 AM 61.0 °F 14.0 °F 16% 29.85 in 10.0 mi West 9.2 mph - N/A   Clear
5:52 AM 61.0 °F 12.9 °F 15% 29.87 in 10.0 mi NW 4.6 mph - N/A   Clear
6:52 AM 60.1 °F 12.9 °F 16% 29.89 in 10.0 mi Calm Calm - N/A   Clear
7:52 AM 66.9 °F 16.0 °F 14% 29.91 in 10.0 mi North 4.6 mph - N/A   Clear
8:52 AM 73.0 °F 17.1 °F 12% 29.92 in 10.0 mi Calm Calm - N/A   Clear
9:52 AM 77.0 °F 18.0 °F 11% 29.93 in 10.0 mi ESE 4.6 mph - N/A   Clear
10:52 AM 82.0 °F 16.0 °F 8% 29.92 in 10.0 mi NE 4.6 mph - N/A   Clear
11:52 AM 84.9 °F 19.9 °F 9% 29.91 in 10.0 mi ENE 6.9 mph - N/A   Clear
12:52 PM 86.0 °F 17.1 °F 8% 29.88 in 10.0 mi Variable 5.8 mph - N/A   Clear
1:52 PM 87.1 °F 14.0 °F 7% 29.86 in 10.0 mi Variable 3.5 mph - N/A   Clear
2:52 PM 90.0 °F 16.0 °F 7% 29.83 in 10.0 mi Calm Calm - N/A   Clear
3:52 PM 89.1 °F 15.1 °F 6% 29.80 in 10.0 mi Calm Calm - N/A   Clear
4:52 PM 91.0 °F 16.0 °F 6% 29.78 in 10.0 mi Variable 3.5 mph - N/A   Clear
5:52 PM 89.1 °F 18.0 °F 7% 29.76 in 10.0 mi SSE 4.6 mph - N/A   Clear
6:52 PM 87.1 °F 27.0 °F 11% 29.75 in 10.0 mi SSE 10.4 mph - N/A   Clear
7:52 PM 84.0 °F 21.0 °F 10% 29.76 in 10.0 mi WSW 11.5 mph - N/A   Clear
8:52 PM 82.9 °F 21.9 °F 11% 29.78 in 10.0 mi WSW 10.4 mph - N/A   Clear
9:52 PM 80.1 °F 24.1 °F 13% 29.78 in 10.0 mi SW 6.9 mph - N/A   Clear
10:52 PM 77.0 °F 35.1 °F 22% 29.78 in 10.0 mi South 13.8 mph - N/A   Clear
11:52 PM 77.0 °F 30.0 °F 18% 29.79 in 10.0 mi SW 12.7 mph - N/A   Clear